W7KKE-3 Weather Reports


Display with metric or nautical units.
time (UTC)temp
F
wind
direction
speed
MPH
gust
MPH
rain 1hr
in
rain 24hr
in
rain mn
in
humidity
%
barometer
mb
20260509103650 49 102 3.0 4.0 0.00 0.00 0.00 84 1016.9
20260509103150 49 105 1.0 4.0 0.00 0.00 0.00 84 1017.1
20260509102651 49 112 3.0 4.0 0.00 0.00 0.00 84 1017.1
20260509102150 49 96 3.0 6.0 0.00 0.00 0.00 84 1017.1
20260509101650 49 109 3.0 6.0 0.00 0.00 0.00 84 1017.2
20260509101152 50 95 4.0 6.0 0.00 0.00 0.00 84 1017.2
20260509100650 50 103 4.0 6.0 0.00 0.00 0.00 84 1017.3
20260509100150 50 113 4.0 6.0 0.00 0.00 0.00 84 1017.4
20260509095651 50 113 4.0 5.0 0.00 0.00 0.00 84 1017.4
20260509095150 50 103 4.0 5.0 0.00 0.00 0.00 84 1017.5
20260509094650 50 102 4.0 5.0 0.00 0.00 0.00 84 1017.5
20260509094152 50 98 3.0 5.0 0.00 0.00 0.00 84 1017.5
20260509093650 50 99 4.0 5.0 0.00 0.00 0.00 84 1017.5
20260509093150 50 100 4.0 5.0 0.00 0.00 0.00 84 1017.5
20260509092651 50 99 4.0 5.0 0.00 0.00 0.00 83 1017.5
20260509092152 50 106 4.0 5.0 0.00 0.00 0.00 83 1017.5
20260509091650 50 102 3.0 5.0 0.00 0.00 0.00 83 1017.6
20260509091152 50 110 3.0 5.0 0.00 0.00 0.00 83 1017.6
20260509090650 50 159 3.0 5.0 0.00 0.00 0.00 83 1017.6
20260509090150 50 110 3.0 5.0 0.00 0.00 0.00 83 1017.6
20260509085651 50 112 2.0 5.0 0.00 0.00 0.00 83 1017.5
20260509085150 50 134 2.0 5.0 0.00 0.00 0.00 83 1017.6
20260509084650 50 105 2.0 5.0 0.00 0.00 0.00 83 1017.7
20260509084153 50 113 3.0 5.0 0.00 0.00 0.00 83 1017.7
20260509083650 50 95 2.0 4.0 0.00 0.00 0.00 83 1017.8
20260509083150 50 103 3.0 4.0 0.00 0.00 0.00 83 1017.8
20260509082651 50 106 2.0 4.0 0.00 0.00 0.00 82 1018.0
20260509082152 50 110 3.0 4.0 0.00 0.00 0.00 82 1018.0
20260509081650 50 106 2.0 4.0 0.00 0.00 0.00 82 1018.0
20260509081152 50 99 2.0 4.0 0.00 0.00 0.00 82 1018.0
20260509080650 50 123 1.0 4.0 0.00 0.00 0.00 82 1018.0
20260509080150 50 177 2.0 4.0 0.00 0.00 0.00 82 1017.9
20260509075651 50 114 1.0 4.0 0.00 0.00 0.00 82 1018.0
20260509075150 50 93 0.0 4.0 0.00 0.00 0.00 82 1018.0
20260509074650 50 107 1.0 3.0 0.00 0.00 0.00 82 1017.9
20260509074152 50 114 1.0 3.0 0.00 0.00 0.00 82 1017.9
20260509073650 51 123 1.0 3.0 0.00 0.00 0.00 82 1018.0
20260509073150 51 98 1.0 3.0 0.00 0.00 0.00 82 1018.0
20260509072653 51 100 1.0 3.0 0.00 0.00 0.00 82 1018.0
20260509072150 51 100 1.0 3.0 0.00 0.00 0.00 82 1018.1
20260509071650 51 96 1.0 4.0 0.00 0.00 0.00 82 1018.2
20260509071152 51 116 2.0 4.0 0.00 0.00 0.00 82 1018.2
20260509070650 51 106 1.0 4.0 0.00 0.00 0.00 82 1018.2
20260509070150 51 107 1.0 6.0 0.00 0.00 0.00 82 1018.1
20260509065651 51 107 3.0 6.0 0.00 0.00 0.00 81 1018.3
20260509065150 51 168 1.0 6.0 0.00 0.00 0.00 81 1018.4
20260509064651 51 100 3.0 5.0 0.00 0.00 0.00 81 1018.4
20260509064152 51 103 2.0 5.0 0.00 0.00 0.00 81 1018.5
20260509063650 51 93 3.0 5.0 0.00 0.00 0.00 81 1018.5
20260509063150 51 96 3.0 5.0 0.00 0.00 0.00 81 1018.5
20260509062651 51 103 3.0 5.0 0.00 0.00 0.00 81 1018.5
20260509062150 52 100 3.0 5.0 0.00 0.00 0.00 81 1018.6
20260509061650 52 100 3.0 5.0 0.00 0.00 0.00 81 1018.6
20260509061152 52 109 3.0 5.0 0.00 0.00 0.00 81 1018.7
20260509060650 52 110 3.0 4.0 0.00 0.00 0.00 81 1018.7
20260509060150 52 116 3.0 5.0 0.00 0.00 0.00 80 1018.8
20260509055651 52 100 3.0 5.0 0.00 0.00 0.00 80 1018.7
20260509055150 52 105 3.0 5.0 0.00 0.00 0.00 80 1018.7
20260509054651 52 106 3.0 4.0 0.00 0.00 0.00 80 1018.7
20260509054152 52 107 3.0 6.0 0.00 0.00 0.00 80 1018.7
20260509053649 53 105 2.0 6.0 0.00 0.00 0.00 80 1018.7
20260509053150 53 105 3.0 6.0 0.00 0.00 0.00 80 1018.7
20260509052150 53 98 3.0 5.0 0.00 0.00 0.00 79 1018.9
20260509051650 53 106 4.0 4.0 0.00 0.00 0.00 79 1018.8
20260509051152 53 116 4.0 5.0 0.00 0.00 0.00 79 1018.8
20260509050650 53 100 3.0 5.0 0.00 0.00 0.00 79 1018.8
20260509050150 54 119 3.0 5.0 0.00 0.00 0.00 79 1018.8
20260509045150 54 114 2.0 5.0 0.00 0.00 0.00 78 1018.8
20260509044650 54 114 3.0 5.0 0.00 0.00 0.00 78 1018.8
20260509044152 54 102 2.0 5.0 0.00 0.00 0.00 78 1018.8
20260509043650 54 106 4.0 4.0 0.00 0.00 0.00 78 1018.7
20260509043150 54 106 4.0 4.0 0.00 0.00 0.00 78 1018.7
20260509042651 54 309 1.0 3.0 0.00 0.00 0.00 77 1018.6
20260509042150 55 319 0.0 3.0 0.00 0.00 0.00 77 1018.6
20260509041650 55 327 0.0 3.0 0.00 0.00 0.00 77 1018.6
20260509041152 55 343 0.0 4.0 0.00 0.00 0.00 77 1018.6
20260509040649 55 91 1.0 4.0 0.00 0.00 0.00 77 1018.5
20260509040150 56 357 0.0 4.0 0.00 0.00 0.00 76 1018.6
20260509035150 56 357 0.0 6.0 0.00 0.00 0.00 76 1018.5
20260509034650 56 340 1.0 6.0 0.00 0.00 0.00 76 1018.5
20260509033649 57 317 2.0 6.0 0.00 0.00 0.00 76 1018.4
20260509033149 57 326 3.0 6.0 0.00 0.00 0.00 75 1018.4
20260509032654 57 340 3.0 6.0 0.00 0.00 0.00 75 1018.4
20260509032150 58 336 4.0 6.0 0.00 0.00 0.00 75 1018.4
20260509031649 58 309 4.0 6.0 0.00 0.00 0.00 75 1018.4
20260509031152 58 327 2.0 6.0 0.00 0.00 0.00 75 1018.4
20260509030650 58 334 4.0 8.0 0.00 0.00 0.00 74 1018.4
20260509030150 58 319 5.0 8.0 0.00 0.00 0.00 74 1018.4
20260509025651 58 334 3.0 8.0 0.00 0.00 0.00 74 1018.4
20260509025149 58 330 5.0 7.0 0.00 0.00 0.00 74 1018.4
20260509024650 59 337 4.0 6.0 0.00 0.00 0.00 74 1018.5
20260509024152 59 310 3.0 7.0 0.00 0.00 0.00 74 1018.6
20260509023650 59 316 4.0 7.0 0.00 0.00 0.00 74 1018.6
20260509023150 59 299 4.0 7.0 0.00 0.00 0.00 74 1018.6
20260509022651 59 322 5.0 8.0 0.00 0.00 0.00 73 1018.6
20260509022150 59 309 5.0 8.0 0.00 0.00 0.00 73 1018.7
20260509021650 59 301 4.0 8.0 0.00 0.00 0.00 73 1018.7
20260509021150 59 284 4.0 8.0 0.00 0.00 0.00 73 1018.7
20260509020650 59 294 6.0 7.0 0.00 0.00 0.00 73 1018.7
20260509020150 60 292 4.0 7.0 0.00 0.00 0.00 73 1018.7
20260509015150 60 295 3.0 8.0 0.00 0.00 0.00 72 1018.6
20260509014649 60 310 4.0 8.0 0.00 0.00 0.00 73 1018.7
20260509013649 60 299 5.0 7.0 0.00 0.00 0.00 72 1018.6
20260509013150 60 303 4.0 7.0 0.00 0.00 0.00 72 1018.7
20260509012651 60 291 5.0 7.0 0.00 0.00 0.00 72 1018.6
20260509012149 60 291 6.0 7.0 0.00 0.00 0.00 72 1018.7
20260509011649 60 320 4.0 7.0 0.00 0.00 0.00 72 1018.7
20260509011150 60 273 4.0 7.0 0.00 0.00 0.00 72 1018.8
20260509010650 60 292 4.0 7.0 0.00 0.00 0.00 72 1018.8
20260509010150 60 277 3.0 6.0 0.00 0.00 0.00 71 1018.8
20260509005649 60 296 4.0 6.0 0.00 0.00 0.00 71 1018.9
20260509005149 60 292 5.0 6.0 0.00 0.00 0.00 71 1018.8
20260509004650 60 324 3.0 6.0 0.00 0.00 0.00 71 1018.9
20260509004150 60 302 2.0 6.0 0.00 0.00 0.00 71 1019.0
20260509003652 60 289 3.0 8.0 0.00 0.00 0.00 70 1019.0
20260509003150 60 294 4.0 8.0 0.00 0.00 0.00 70 1019.1
20260509002649 60 282 4.0 8.0 0.00 0.00 0.00 70 1019.1
20260509002150 60 298 5.0 7.0 0.00 0.00 0.00 70 1019.0
20260509001650 61 299 5.0 8.0 0.00 0.00 0.00 70 1019.0
20260509001152 61 291 3.0 8.0 0.00 0.00 0.00 70 1019.1
20260509000650 61 299 5.0 8.0 0.00 0.00 0.00 70 1019.1
20260509000150 60 236 3.0 6.0 0.00 0.00 0.00 70 1019.2
20260508235150 61 288 3.0 8.0 0.00 0.00 0.00 69 1019.2
20260508234650 61 282 4.0 8.0 0.00 0.00 0.00 69 1019.2
20260508234152 61 305 5.0 7.0 0.00 0.00 0.00 69 1019.2
20260508233649 61 302 4.0 7.0 0.00 0.00 0.00 69 1019.2
20260508233150 62 292 4.0 7.0 0.00 0.00 0.00 69 1019.2
20260508232651 62 301 6.0 7.0 0.00 0.00 0.00 68 1019.3
20260508232150 62 263 5.0 7.0 0.00 0.00 0.00 68 1019.3
20260508231650 62 242 4.0 7.0 0.00 0.00 0.00 68 1019.3
20260508231152 62 264 4.0 7.0 0.00 0.00 0.00 69 1019.3
20260508230650 62 274 3.0 7.0 0.00 0.00 0.00 69 1019.4
20260508230150 62 264 4.0 7.0 0.00 0.00 0.00 69 1019.4
20260508225651 62 274 4.0 8.0 0.00 0.00 0.00 69 1019.4
20260508225150 62 267 5.0 8.0 0.00 0.00 0.00 69 1019.4
20260508224650 62 270 4.0 8.0 0.00 0.00 0.00 68 1019.3
20260508224152 62 235 4.0 8.0 0.00 0.00 0.00 67 1019.3
20260508223650 62 268 5.0 7.0 0.00 0.00 0.00 67 1019.2
20260508223150 62 296 5.0 9.0 0.00 0.00 0.00 67 1019.2
20260508222651 62 254 3.0 9.0 0.00 0.00 0.00 68 1019.3
20260508222150 62 261 5.0 9.0 0.00 0.00 0.00 67 1019.3
20260508221650 62 252 4.0 9.0 0.00 0.00 0.00 67 1019.3
20260508221152 62 254 4.0 9.0 0.00 0.00 0.00 67 1019.2
20260508220649 62 273 4.0 9.0 0.00 0.00 0.00 67 1019.3
20260508220151 62 210 4.0 9.0 0.00 0.00 0.00 68 1019.3
20260508215651 62 250 6.0 9.0 0.00 0.00 0.00 68 1019.3
20260508215150 62 236 5.0 9.0 0.00 0.00 0.00 68 1019.2
20260508214650 62 239 5.0 9.0 0.00 0.00 0.00 68 1019.2
20260508214152 62 249 7.0 10.0 0.00 0.00 0.00 67 1019.2
20260508213650 62 238 6.0 10.0 0.00 0.00 0.00 68 1019.2
20260508213150 62 246 4.0 10.0 0.00 0.00 0.00 67 1019.2
20260508212651 62 271 7.0 9.0 0.00 0.00 0.00 67 1019.2
20260508212150 62 242 4.0 9.0 0.00 0.00 0.00 68 1019.2
20260508211650 62 229 5.0 11.0 0.00 0.00 0.00 67 1019.2
20260508211152 62 280 6.0 11.0 0.00 0.00 0.00 67 1019.2
20260508210150 62 266 5.0 14.0 0.00 0.00 0.00 68 1019.1
20260508205651 62 252 6.0 14.0 0.00 0.00 0.00 66 1019.1
20260508205150 62 243 4.0 14.0 0.00 0.00 0.00 68 1019.0
20260508204650 62 243 9.0 12.0 0.00 0.00 0.00 68 1019.0
20260508204152 62 245 6.0 12.0 0.00 0.00 0.00 69 1019.0
20260508203651 62 254 5.0 12.0 0.00 0.00 0.00 68 1019.0
20260508203150 62 235 8.0 11.0 0.00 0.00 0.00 67 1019.0
20260508202652 63 242 8.0 13.0 0.00 0.00 0.00 67 1018.8
20260508202151 63 260 7.0 13.0 0.00 0.00 0.00 68 1018.9
20260508201650 63 245 7.0 13.0 0.00 0.00 0.00 68 1018.9
20260508201152 62 266 8.0 12.0 0.00 0.00 0.00 69 1018.8
20260508200650 62 180 1.0 12.0 0.00 0.00 0.00 69 1018.7
20260508200150 62 201 3.0 12.0 0.00 0.00 0.00 70 1018.6
20260508195651 61 233 5.0 10.0 0.00 0.00 0.00 70 1018.7
20260508195150 61 277 5.0 12.0 0.00 0.00 0.00 70 1018.8
20260508194649 61 242 2.0 12.0 0.00 0.00 0.00 71 1018.8
20260508194152 60 215 5.0 12.0 0.00 0.00 0.00 71 1018.7
20260508193650 61 259 6.0 10.0 0.00 0.00 0.00 71 1018.7
20260508193150 60 242 4.0 10.0 0.00 0.00 0.00 73 1018.6
20260508192150 59 233 6.0 10.0 0.00 0.00 0.00 71 1018.6
20260508191650 59 200 3.0 8.0 0.00 0.00 0.00 71 1018.6
20260508191152 59 217 3.0 8.0 0.00 0.00 0.00 71 1018.6
20260508190650 59 158 4.0 7.0 0.00 0.00 0.00 71 1018.6
20260508190150 59 205 2.0 10.0 0.00 0.00 0.00 72 1018.7
20260508185651 58 189 2.0 10.0 0.00 0.00 0.00 72 1018.6
20260508185150 58 208 3.0 10.0 0.00 0.00 0.00 71 1018.7
20260508184650 58 155 6.0 9.0 0.00 0.00 0.00 71 1018.7
20260508184152 58 233 1.0 11.0 0.00 0.00 0.00 72 1018.5
20260508183650 58 232 5.0 11.0 0.00 0.00 0.00 71 1018.6
20260508183150 58 205 4.0 11.0 0.00 0.00 0.00 71 1018.6
20260508182651 57 254 5.0 12.0 0.00 0.00 0.00 72 1018.5
20260508182150 57 194 3.0 12.0 0.00 0.00 0.00 72 1018.5
20260508181650 56 190 3.0 12.0 0.00 0.00 0.00 73 1018.4
20260508181152 56 187 5.0 11.0 0.00 0.00 0.00 72 1018.4
20260508180650 56 191 6.0 11.0 0.00 0.00 0.00 73 1018.5
20260508180150 56 176 5.0 10.0 0.00 0.00 0.00 73 1018.5
20260508175651 56 232 5.0 10.0 0.00 0.00 0.00 73 1018.4
20260508175150 55 182 4.0 9.0 0.00 0.00 0.00 74 1018.5
20260508174650 55 190 4.0 9.0 0.00 0.00 0.00 74 1018.4
20260508174152 55 177 4.0 11.0 0.00 0.00 0.00 74 1018.4
20260508173650 55 228 6.0 11.0 0.00 0.00 0.00 73 1018.4
20260508173150 55 197 4.0 11.0 0.00 0.00 0.00 73 1018.3
20260508172653 55 221 5.0 13.0 0.00 0.00 0.00 73 1018.3
20260508172150 55 214 6.0 13.0 0.00 0.00 0.00 73 1018.3
20260508171650 55 190 7.0 13.0 0.00 0.00 0.00 73 1018.2
20260508171152 55 203 7.0 10.0 0.00 0.00 0.00 73 1018.2
20260508170650 55 124 3.0 10.0 0.00 0.00 0.00 74 1018.2
20260508170149 55 187 5.0 7.0 0.00 0.00 0.00 74 1018.1
20260508165649 55 183 4.0 11.0 0.00 0.00 0.00 74 1018.1
20260508164650 55 176 1.0 11.0 0.00 0.00 0.00 74 1018.0
20260508164152 55 182 4.0 11.0 0.00 0.00 0.00 74 1018.0
20260508163650 55 186 4.0 11.0 0.00 0.00 0.00 74 1018.0
20260508163150 55 176 4.0 11.0 0.00 0.00 0.00 75 1018.0
20260508162651 55 221 2.0 11.0 0.00 0.00 0.00 75 1017.9
20260508162148 54 187 4.0 11.0 0.00 0.00 0.00 75 1017.9
20260508161650 54 194 4.0 9.0 0.00 0.00 0.00 75 1017.9
20260508161152 54 152 4.0 6.0 0.00 0.00 0.00 75 1017.8
20260508160650 54 196 1.0 8.0 0.00 0.00 0.00 75 1017.7
20260508160149 54 184 0.0 8.0 0.00 0.00 0.00 75 1017.7
20260508155150 54 161 2.0 8.0 0.00 0.00 0.00 75 1017.6
20260508154650 54 190 4.0 9.0 0.00 0.00 0.00 75 1017.7
20260508154152 54 196 2.0 9.0 0.00 0.00 0.00 76 1017.5
20260508153650 54 173 2.0 9.0 0.00 0.00 0.00 76 1017.5
20260508153150 54 224 4.0 8.0 0.00 0.00 0.00 76 1017.5
20260508152651 54 194 5.0 7.0 0.00 0.00 0.00 76 1017.5
20260508152150 54 162 4.0 6.0 0.00 0.00 0.00 76 1017.5
20260508151649 54 184 4.0 7.0 0.00 0.00 0.00 76 1017.4
20260508151152 54 186 2.0 7.0 0.00 0.00 0.00 76 1017.2
20260508150650 54 224 3.0 7.0 0.00 0.00 0.00 77 1017.2
20260508150149 53 172 3.0 6.0 0.00 0.00 0.00 77 1017.1
20260508145651 53 179 3.0 7.0 0.00 0.00 0.00 77 1017.0
20260508145150 53 196 2.0 7.0 0.00 0.00 0.00 78 1016.9
20260508144649 53 121 2.0 7.0 0.00 0.00 0.00 78 1016.6
20260508144152 53 154 3.0 4.0 0.00 0.00 0.00 78 1016.5
20260508143650 53 95 1.0 5.0 0.00 0.00 0.00 79 1016.6
20260508143150 53 194 1.0 5.0 0.00 0.00 0.00 79 1016.3
20260508142650 53 187 2.0 5.0 0.00 0.00 0.00 79 1016.5
20260508142150 53 161 0.0 4.0 0.00 0.00 0.00 80 1016.3
20260508141152 52 197 2.0 4.0 0.00 0.00 0.00 80 1016.2
20260508140650 52 179 2.0 4.0 0.00 0.00 0.00 80 1016.3
20260508140149 52 114 1.0 2.0 0.00 0.00 0.00 80 1016.3
20260508135650 52 133 0.0 5.0 0.00 0.00 0.00 80 1016.2
20260508135150 52 91 3.0 5.0 0.00 0.00 0.00 80 1015.9
20260508134650 52 96 1.0 5.0 0.00 0.00 0.00 80 1015.8
20260508134149 52 100 2.0 4.0 0.00 0.00 0.00 80 1016.1
20260508133649 52 95 2.0 4.0 0.00 0.00 0.00 80 1016.1
20260508133149 52 105 2.0 5.0 0.00 0.00 0.00 80 1016.1
20260508132651 52 103 2.0 5.0 0.00 0.00 0.00 80 1016.3
20260508132151 52 92 3.0 5.0 0.00 0.00 0.00 80 1016.3
20260508131649 52 117 4.0 4.0 0.00 0.00 0.00 80 1016.4
20260508131152 52 96 2.0 4.0 0.00 0.00 0.00 80 1016.4
20260508130649 52 120 2.0 4.0 0.00 0.00 0.00 80 1016.4
20260508130149 52 138 2.0 2.0 0.00 0.00 0.00 80 1016.4
20260508125650 52 140 0.0 5.0 0.00 0.00 0.00 80 1016.5
20260508125150 52 176 1.0 5.0 0.00 0.00 0.00 80 1016.6
20260508124649 52 120 2.0 5.0 0.00 0.00 0.00 81 1016.6
20260508124152 51 170 1.0 3.0 0.00 0.00 0.00 81 1016.5
20260508123649 51 141 2.0 3.0 0.00 0.00 0.00 81 1016.5
20260508123149 52 95 0.0 2.0 0.00 0.00 0.00 81 1016.5
20260508122650 51 105 0.0 5.0 0.00 0.00 0.00 81 1016.4
20260508122150 51 112 1.0 5.0 0.00 0.00 0.00 81 1016.3
20260508121650 51 96 1.0 5.0 0.00 0.00 0.00 81 1016.3
20260508121152 51 106 2.0 4.0 0.00 0.00 0.00 81 1016.4
20260508120649 51 113 2.0 4.0 0.00 0.00 0.00 81 1016.2
20260508120150 51 103 3.0 4.0 0.00 0.00 0.00 81 1016.2
20260508115650 51 109 3.0 3.0 0.00 0.00 0.00 81 1016.2
20260508115149 51 121 1.0 3.0 0.00 0.00 0.00 81 1016.2
20260508114649 51 116 0.0 4.0 0.00 0.00 0.00 81 1016.2
20260508114153 51 96 1.0 4.0 0.00 0.00 0.00 81 1016.1
20260508113649 51 123 2.0 4.0 0.00 0.00 0.00 81 1016.0
20260508113149 51 67 2.0 3.0 0.00 0.00 0.00 82 1016.0
20260508112650 50 95 1.0 4.0 0.00 0.00 0.00 81 1016.1
20260508112150 50 102 1.0 4.0 0.00 0.00 0.00 81 1016.0
20260508111649 51 102 2.0 4.0 0.00 0.00 0.00 81 1015.9
20260508111151 50 109 1.0 5.0 0.00 0.00 0.00 81 1015.7
20260508110649 51 124 2.0 5.0 0.00 0.00 0.00 81 1015.6
20260508110150 51 102 3.0 5.0 0.00 0.00 0.00 81 1015.7
20260508105650 51 120 2.0 5.0 0.00 0.00 0.00 81 1015.6
20260508105150 51 100 3.0 4.0 0.00 0.00 0.00 81 1015.7
20260508104649 51 77 2.0 4.0 0.00 0.00 0.00 81 1015.8
20260508104151 51 98 2.0 4.0 0.00 0.00 0.00 81 1015.8